Regional Weather Roundup
Issued by NWS Sterling, VA

Home | Current Version | Previous Version | Graphics & Text | Print | Product List | Glossary On
Versions: 1 2 3 4 5 6 7 8 9 10 11 12 13 14 15 16 17 18 19 20 21 22 23 24 25 26 27 28 29 30 31 32 33 34 35 36 37 38 39 40 41 42 43 44 45 46 47 48 49 50
890
ASUS41 KLWX 251711
RWRLWX

REGIONAL WEATHER ROUNDUP
NATIONAL WEATHER SERVICE BALTIMORE MD/WASHINGTON DC
100 PM EDT MON SEP 25 2017

Note: "FAIR" indicates few or no clouds below 12,000 feet
with no significant weather and/or obstructions to visibility.
 TC=TEMPERATURE CELSIUS

 * =Non NWS site. Station does not report precipitation (e.g. rain,
    snow, etc.), thunder, or fog.

DCZ001-MDZ009-015-VAZ040>042-051-053>054-251800-
WASHINGTON METRO

CITY           SKY/WX    TMP DP  RH WIND       PRES   REMARKS
WASHINGTON NAT PTSUNNY   88  67  49 NE7       30.04F HX  91
DULLES         PTSUNNY   87  69  54 VRB7      30.04F HX  91
FT BELVOIR     SUNNY     87  66  50 NE3       30.03F
QUANTICO       MOSUNNY   86  69  56 NE5       30.04F HX  90
COLLEGE PARK*  SUNNY     85  67  55 N6        30.04F
LEESBURG*      SUNNY     86  70  58 NE3       30.06F HX  90
MANASSAS*      SUNNY     87  68  52 VRB3      30.04F HX  90
GAITHERSBURG*  SUNNY     87  68  52 VRB3      30.07F HX  90

$$

MDZ006>007-011-014-251800-
BALTIMORE METRO

CITY           SKY/WX    TMP DP  RH WIND       PRES   REMARKS
BWI AIRPORT    PTSUNNY   86  67  52 E6        30.03F
MD SCIENCE CTR   N/A     88  68  51 MISG      30.04F HX  91
MARTIN STATE   MOSUNNY   84  70  61 CALM      30.05F
ANNAPOLIS      SUNNY     85  71  63 SE5       30.04F HX  90
FORT MEADE*      N/A     84  66  54 N5        30.06F

$$

MDZ012-015-019>023-251800-
MARYLAND EASTERN SHORE

CITY           SKY/WX    TMP DP  RH WIND       PRES   REMARKS
OCEAN CITY     CLOUDY    73  69  87 E10       30.05S
SALISBURY      SUNNY     84  68  58 E12       30.02F
CAMBRIDGE*     SUNNY     86  66  51 VRB6G14   30.03F
EASTON*        SUNNY     86  64  48 NE8       30.07

$$

MDZ017>025-251800-
SOUTHERN MARYLAND

CITY           SKY/WX    TMP DP  RH WIND       PRES   REMARKS
PATUXENT RIVER MOSUNNY   85  61  44 VRB3      30.03F
ST INIGOES     NOT AVBL
LEONARDTOWN*   SUNNY     81  61  50 NE5       30.05S

$$

MDZ003>005-251800-
NORTH CENTRAL MARYLAND

CITY           SKY/WX    TMP DP  RH WIND       PRES   REMARKS
FREDERICK*     SUNNY     90  66  45 CALM      30.08F HX  92
HAGERSTOWN APT SUNNY     88  68  51 CALM      30.07F HX  91
WESTMINSTER*   SUNNY     84  66  54 CALM      30.08S

$$

MDZ501>502-251800-
WESTERN MARYLAND

CITY           SKY/WX    TMP DP  RH WIND       PRES   REMARKS
OAKLAND*       PTSUNNY   75  61  60 SE8       30.17S
CUMBERLAND*    MOSUNNY   86  66  51 S3        30.12F

$$

VAZ025>031-251800-
SHENANDOAH VALLEY

CITY           SKY/WX    TMP DP  RH WIND       PRES   REMARKS
WINCHESTER*    SUNNY     82  64  54 E3        30.07F
FRONT ROYAL*   SUNNY     82  68  61 CALM      30.06F
LURAY*         SUNNY     84  64  51 CALM      30.06F
NEW MARKET*    MOSUNNY   86  63  46 S3        30.06F
STAUNTON*      PTSUNNY   82  65  56 CALM      30.11S
WAYNESBORO*    PTSUNNY   81  68  64 NE3       30.10F

$$

WVZ021-048>050-054>055-251800-
EASTERN WEST VIRGINIA PANHANDLE

CITY           SKY/WX    TMP DP  RH WIND       PRES   REMARKS
MARTINSBURG    SUNNY     85  66  53 CALM      30.06F
PETERSBURG*    MOSUNNY   86  67  52 CALM      30.08F

$$

VAZ036>039-050-251800-
CENTRAL FOOTHILLS

CITY           SKY/WX    TMP DP  RH WIND       PRES   REMARKS
CHARLOTTESVILL MOSUNNY   87  67  51 NE7       30.05F HX  90
CULPEPER*      SUNNY    N/A N/A N/A N9        30.05S
ORANGE*        SUNNY     86  64  48 N7        30.04F
GORDONSVILLE*  MOSUNNY   85  68  55 NE7       30.04F
WARRENTON*       N/A    N/A N/A N/A MISG        N/A

$$

VAZ055>057-251800-
NORTH AND CENTRAL PIEDMONT

CITY           SKY/WX    TMP DP  RH WIND       PRES   REMARKS
FREDERICKSBRG* SUNNY     86  67  53 E9        30.02F
STAFFORD*      SUNNY     86  65  49 E6        30.08S

$$

NCZ024-NYZ072-PAZ021-071-VAZ022-071-251800-
OTHER REGIONAL OBSERVATIONS

CITY           SKY/WX    TMP DP  RH WIND       PRES   REMARKS
PHILADELPHIA   MOSUNNY   88  67  49 E6        30.04F HX  91
PITTSBURGH     CLOUDY    83  65  54 S6        30.10F
ROANOKE        CLOUDY    81  64  56 N7        30.10F
RICHMOND       PTSUNNY   85  66  53 NE15      30.01F
RALEIGH        PTSUNNY   81  66  60 NE12      29.99F

$$

ANZ530>537-251800-
MARINE OBSERVATIONS

STATION/POSITION TIME  TEMP    WIND        PRES
                       AIR SEA DIR/SP/G
                 (UTC) (F)     (DEG/KT/KT) (MB)
THOMAS PT LIGHT  1700   78 78   30/  2/  3   N/A
BALT KEY BRIDGE  1642   79     140/  5/  5 1017.3F
COVE POINT       1642   76     350/ 12/ 12 1017.6F
LEWISETTA        1642   75 78   70/  5/  6 1016.7F
SOLOMONS ISLAND  1642   78 77  150/  3/  4 1016.5F
PINEY POINT      1642          130/  6/  7   N/A

$$





USA.gov is the U.S. government's official web portal to all federal, state and local government web resources and services.